Findlay, OH

1:25 PM EDT on June 23, 2017 (GMT -0400)
Findlay

Weather History for KFDY - October, 2010

Change the Weather History Date:

Friday, October 8, 2010

  Actual Average Record
Temperature  
Mean Temperature - -  
Max Temperature - 65 °F 90 °F (2007)
Min Temperature - 44 °F 25 °F (1952)
Moisture  
Dew Point -    
Average Humidity    
Maximum Humidity    
Minimum Humidity    
Precipitation  
Precipitation 0.00 in - - ()
Wind  
Wind Speed - (North)    
Max Wind Speed -    
Max Gust Speed -    
Averages and records for this station are not official NWS values.
T = Trace of Precipitation, MM = Missing Value Source: NWS Daily Summary

Daily Weather History Graph

Daily Weather History Graph

Search for Another Location

Airport or City:

Trip Planner

Search our weather history database for the weather conditions in past years. The results will help you decide how hot, cold, wet, or windy it might be!

Date:

Astronomy

Oct. 08, 2010 Rise Set
Actual Time 7:38 AM EDT 7:05 PM EDT
Civil Twilight 7:11 AM EDT 7:32 PM EDT
Nautical Twilight 6:39 AM EDT 8:04 PM EDT
Astronomical Twilight 6:07 AM EDT 8:36 PM EDT
Moon 8:44 AM EDT (10/8) 7:17 PM EDT (10/8)
Length of Visible Light 12h 21m
Length of Day
11h 26m
New Moon, 1% of the Moon is Illuminated
Oct 8
New Moon
Oct 14
First Quarter
Oct 22
Full
Oct 30
Last Quarter
Nov 6
New

Hourly Weather History & Observations

Time (EDT) Temp. Windchill Dew Point Humidity Pressure Visibility Wind Dir Wind Speed Gust Speed Precip Events Conditions
12:53 AM 50.0 °F - 39.0 °F 66% 30.07 in 10.0 mi West 3.5 mph - N/A   Clear
1:53 AM 46.9 °F - 39.0 °F 74% 30.07 in 10.0 mi WSW 3.5 mph - N/A   Clear
2:53 AM 44.1 °F - 37.9 °F 79% 30.07 in 10.0 mi Calm Calm - N/A   Clear
3:53 AM 43.0 °F 41.3 °F 37.9 °F 82% 30.07 in 10.0 mi West 3.5 mph - N/A   Clear
4:53 AM 43.0 °F - 37.0 °F 80% 30.06 in 10.0 mi Calm Calm - N/A   Clear
5:53 AM 41.0 °F - 37.0 °F 86% 30.07 in 10.0 mi Calm Calm - N/A   Clear
6:53 AM 37.0 °F 33.3 °F 34.0 °F 89% 30.09 in 10.0 mi SSW 4.6 mph - N/A   Clear
7:53 AM 41.0 °F 39.0 °F 37.0 °F 86% 30.09 in 10.0 mi South 3.5 mph - N/A   Clear
8:53 AM 46.9 °F - 43.0 °F 86% 30.09 in 10.0 mi Calm Calm - N/A   Clear
9:53 AM 55.0 °F - 42.1 °F 62% 30.11 in 10.0 mi West 8.1 mph - N/A   Clear
10:53 AM 63.0 °F - 42.1 °F 46% 30.10 in 10.0 mi West 8.1 mph - N/A   Clear
11:53 AM 69.1 °F - 42.1 °F 38% 30.09 in 10.0 mi WSW 8.1 mph - N/A   Clear
12:53 PM 73.0 °F - 42.1 °F 33% 30.08 in 10.0 mi WSW 12.7 mph - N/A   Clear
1:53 PM 75.0 °F - 41.0 °F 29% 30.05 in 10.0 mi WSW 13.8 mph - N/A   Clear
2:53 PM 78.1 °F - 41.0 °F 27% 30.02 in 10.0 mi West 15.0 mph 20.7 mph N/A   Clear
3:53 PM 79.0 °F - 37.9 °F 23% 30.00 in 10.0 mi West 13.8 mph - N/A   Clear
4:53 PM 79.0 °F - 36.0 °F 21% 29.99 in 10.0 mi West 11.5 mph - N/A   Clear
5:53 PM 77.0 °F - 36.0 °F 23% 29.99 in 10.0 mi West 11.5 mph - N/A   Clear
6:53 PM 71.1 °F - 39.0 °F 31% 29.99 in 10.0 mi WSW 5.8 mph - N/A   Clear
7:53 PM 64.9 °F - 37.9 °F 37% 29.99 in 10.0 mi WSW 3.5 mph - N/A   Clear
8:53 PM 63.0 °F - 37.9 °F 40% 29.99 in 10.0 mi SW 5.8 mph - N/A   Clear
9:53 PM 62.1 °F - 37.0 °F 39% 29.99 in 10.0 mi SW 5.8 mph - N/A   Clear
10:53 PM 60.1 °F - 37.9 °F 44% 30.00 in 10.0 mi SW 4.6 mph - N/A   Clear
11:53 PM 57.0 °F - 37.9 °F 49% 30.00 in 10.0 mi SW 5.8 mph - N/A   Clear